This is the latest recevied weather packets stored in our database for station/object SP7QPD-1. If no packets are shown the sender has not sent any weather packets the latest 10 day(s).
| Time | Temp. | Humidity | Pressure | Rain* | Wind** | Luminosity | Snow |
|---|---|---|---|---|---|---|---|
| 1777911786 | 25.56° C | 35% | 1008.9 hPa | 0 mm | - | - | - |
| 1777911186 | 25.56° C | 36% | 1008.8 hPa | 0 mm | - | - | - |
| 1777910586 | 25.56° C | 36% | 1008.7 hPa | 0 mm | - | - | - |
| 1777909986 | 26.11° C | 35% | 1008.8 hPa | 0 mm | - | - | - |
| 1777909386 | 26.11° C | 35% | 1008.9 hPa | 0 mm | - | - | - |
| 1777908785 | 26.67° C | 35% | 1009 hPa | 0 mm | - | - | - |
| 1777908185 | 26.67° C | 35% | 1008.9 hPa | 0 mm | - | - | - |
| 1777907585 | 27.22° C | 34% | 1009.2 hPa | 0 mm | - | - | - |
| 1777906985 | 27.22° C | 34% | 1009.2 hPa | 0 mm | - | - | - |
| 1777906385 | 27.78° C | 34% | 1009.3 hPa | 0 mm | - | - | - |
| 1777905785 | 27.78° C | 34% | 1009.3 hPa | 0 mm | - | - | - |
| 1777905185 | 27.22° C | 34% | 1009.5 hPa | 0 mm | - | - | - |
| 1777904585 | 27.22° C | 35% | 1009.5 hPa | 0 mm | - | - | - |
| 1777903985 | 27.22° C | 35% | 1009.5 hPa | 0 mm | - | - | - |
| 1777903385 | 27.22° C | 35% | 1009.5 hPa | 0 mm | - | - | - |
| 1777902785 | 26.67° C | 35% | 1009.7 hPa | 0 mm | - | - | - |
| 1777902185 | 26.67° C | 34% | 1009.8 hPa | 0 mm | - | - | - |
| 1777901584 | 26.67° C | 35% | 1009.9 hPa | 0 mm | - | - | - |
| 1777900984 | 26.67° C | 34% | 1010 hPa | 0 mm | - | - | - |
| 1777900384 | 26.67° C | 35% | 1009.9 hPa | 0 mm | - | - | - |
| 1777899784 | 26.67° C | 35% | 1010.2 hPa | 0 mm | - | - | - |
| 1777899184 | 26.11° C | 35% | 1010.3 hPa | 0 mm | - | - | - |
| 1777898584 | 26.11° C | 35% | 1010.5 hPa | 0 mm | - | - | - |
| 1777897984 | 26.11° C | 36% | 1010.7 hPa | 0 mm | - | - | - |
| 1777897384 | 25.56° C | 37% | 1010.7 hPa | 0 mm | - | - | - |
* Rain latest hour (hover to see other rain measurements)
** Current wind speed in m/s (hover to see current wind gust speed)